Regional Weather Roundup
Issued by NWS

Home | Current Version | Previous Version | Graphics & Text | Print | Product List | Glossary On
Versions: 1 2 3 4 5 6 7 8 9 10 11 12 13 14 15 16 17 18 19 20 21 22 23 24 25 26 27 28 29 30 31 32 33 34 35 36 37 38 39 40 41 42 43 44 45 46 47 48 49 50
771
ASUS44 KLIX 190910
RWRLA
LOUISIANA WEATHER ROUNDUP
NATIONAL WEATHER SERVICE NEW ORLEANS LA
300 AM CST FRI DEC 19 2014

NOTE: "FAIR" INDICATES FEW OR NO CLOUDS BELOW 12,000 FEET WITH NO
      SIGNIFICANT WEATHER AND/OR OBSTRUCTIONS TO VISIBILITY.
      SKY/WX - SKY CONDITION AND SIGNIFICANT WEATHER.
      TMP - AIR TEMPERATURE.    DP   - DEWPOINT TEMPERATURE.
      RH  - RELATIVE HUMIDITY.  PRES - PRESSURE.
      HX  - HEAT INDEX.         WCI  - WIND CHILL INDEX.

*  THESE STATIONS ARE NOT NWS OR FAA STATIONS AND ARE NOT UNDER
   NWS QUALITY CONTROL.

LAZ040-048-061>063-065-066-069-191000-
SOUTHEAST LOUISIANA

CITY           SKY/WX    TMP DP  RH WIND       PRES   REMARKS
N.O. AUDUBON     N/A     58  56  92 MISG        N/A
N.O. INTL ARPT CLOUDY    58  52  80 E10       30.06F
N.O. LAKEFRONT CLOUDY    58  52  80 E14       30.07F
N.O. DOWNTOWN* PTSUNNY   57  48  72 E5        30.07F
SLIDELL        CLOUDY    55  49  80 NE7       30.09R
BATON ROUGE    CLOUDY    54  52  93 NE8       30.05F
BOOTHVILLE     CLOUDY    62  59  90 E8        30.06F
BELLE CHASSE   CLOUDY    57  54  89 NE10      30.06F
BOGALUSA*        N/A     54  50  89 NE5       30.12F
GALLIANO*      CLOUDY    57  56  97 MISG      30.05S
NEW ROADS*     DRIZZLE   54  53  97 NE8       30.06F
GONZALES*      CLOUDY    58  56  94 E5        30.05F
HAMMOND*       NOT AVBL
HOUMA*         CLOUDY    58  58  98 NE6       30.04F FOG
PORT FOURCHON* PTSUNNY   64  61  88 E10       30.06F

$$

LAZ041-044-053-054-191000-
SOUTHWEST LOUISIANA

CITY           SKY/WX    TMP DP  RH WIND       PRES   REMARKS
LAKE CHARLES   LGT RAIN  56  54  93 MISG      30.05S
LAFAYETTE      LGT RAIN  57  56  96 E3        30.03F FOG
PATTERSON      CLOUDY    57  55  94 E7        30.04F
SALT POINT       N/A     63  59  87 VRB5      30.02S
NEW IBERIA     LGT RAIN  60  57  89 E9        30.04R FOG
CHENAULT AIRPK LGT RAIN  54  53  98 N5        30.06R

$$

LAZ027-028-191000-
CENTRAL LOUISIANA

CITY           SKY/WX    TMP DP  RH WIND       PRES   REMARKS
FORT POLK      LGT RAIN  52  50  93 NE8       30.05F FOG
ALEXANDRIA INT CLOUDY    51  51 100 E3        30.09R FOG
ALEXANDRIA     CLOUDY    51  50  96 VRB6      30.09F

$$

LAZ001-002-191000-
NORTHWEST LOUISIANA

CITY           SKY/WX    TMP DP  RH WIND       PRES   REMARKS
SHREVEPORT     CLOUDY    51  47  86 NE6       30.14R
BARKSDALE AFB  NOT AVBL
DTN SHREVEPORT CLOUDY    50  45  83 NE6       30.15R

$$

LAZ014-016-191000-
NORTHEAST LOUISIANA

CITY           SKY/WX    TMP DP  RH WIND       PRES   REMARKS
MONROE         CLOUDY    49  47  93 NE7       30.16S
TALLULAH       CLOUDY    50  44  80 NE5       30.14R

$$




USA.gov is the U.S. government's official web portal to all federal, state and local government web resources and services.